"Pseudo-MPEC" for P10Ol3Q

Created 2019 Jun 15 19:09:14 UT using Find_Orb

Click here for an explanation of pseudo-MPECs

 
 Astrometry: 
     P10Ol3Q  C2019 05 304FN]qD3*#K@[G\$!_N,8-dXy_TcOR]@G2Wr0j3ovHX'rqUX0BB;(F51
     P10Ol3Q  C2019 05 30vX1(YnHZ%RjI.W^5q--heRX-uMiK_TroRO\^@_Fw$+#9dDew8Lr?F51
     P10Ol3Q  C2019 05 30pC%JQws.PID4C)5ta@RBTfw?=5F5Up34@1:L;=p*`?Za_2[)pGjeF51
     P10Ol3Q |C2019 06 03ojT$`A8:Jtf?77IwAstrometrykh2,'xb'Md-q)Wa7[!3t[MxV9=807
     P10Ol3Q |C2019 06 03m*gEu/W(7U*S7WqD(Ui87jK1R/\redacted;k)PmNKW_-Hoclick807
     P10Ol3Q |C2019 06 03lU,#M*,M`u?w@DbvK\BQ?ryHCV-+XVw3b`G,ha\a^V,V\Kl$1v!3807
     P10Ol3Q |C2019 06 05t1A%CQVWn0q;q_-G:c-:sie?nA*Dwrb9Q,j-=^4S5NUBOI_\c2%(807
     P10Ol3Q |C2019 06 05QMJ5r!SDclvo7]2u!!OjO^f$.%:q7sTBGXXsY1qhereBXm8oQ$j,807
     P10Ol3Q |C2019 06 05%sQTX=2fw74Tk1for!IiN(TE%2mq'DuL*!explanationy[/WSvw807
     P10Ol3Q |C2019 06 05PVid0Zue^9@s9E_,pg*lm4GlJ0$#,!ScjqM%G9=e,]^y]x+Seiy2807
     P10Ol3Q |C2019 06 06XX(1\+=8^Z\UbaV!XBapZaSXF`w6:/n:BPK$[CsWS(?:_tM[\C;w807
     P10Ol3Q |C2019 06 06PNC6K3*5[yW1J5FG,?%_HDSasBUI7RyeOj7ctxs]0xLVEXP$=R#q807

Station data:
(807) Cerro Tololo Observatory, La Serena  (S30.169136 W70.805900)  Chile.
(F51) Pan-STARRS 1, Haleakala  (N20.707235 W156.255910)  US/Hawaii.
   Observers N. Primak, A. Schultz, S. Watters, J. Thiel, T. Goggia. Measurer
   PS1 Science Consortium. 1.8-m Ritchey-Chrétien + CCD.

Orbital elements:  P10Ol3Q
   Perihelion 2020 Jun 24.144087 +/- 4.61 TT =  3:27:29 (JD 2459024.644087)
Epoch 2019 Jun  6.0 TT = JDT 2458640.5   Earth MOID: 0.8362   AutoNEOCP
M 226.92360931 +/- 1.8              (J2000 ecliptic)
n   0.34642311 +/- 0.000973         Peri.   95.18646 +/- 1.4
a   2.00785097 +/- 0.00376          Node   284.11789 +/- 0.14
e   0.1412809 +/- 0.000773          Incl.   18.43988 +/- 0.054
P   2.85                   H 17.8   G  0.15   U  8.1  
q 1.72417983 +/- 0.0019    Q 2.29152211 +/- 0.00576
From 12 observations 2019 May 30-June 6; mean residual 0".20
Residuals in arcseconds: 
190530 F51  .00   .04+    190603 807  .10-  .00     190605 807  .19+  .03-    
190530 F51  .02+  .05+    190603 807  .02-  .03-    190605 807  .25-  .16-    
190530 F51  .06+  .06-    190605 807  .48+  .22+    190606 807  .28-  .13-    
190603 807  .32-  .13-    190605 807  .48+  .18+    190606 807  .14-  .09+    

Ephemerides (geocentric):
Date (UTC) HH   RA              Dec         delta   r     elong  mag " sig PA
---- -- -- --  -------------   -----------  ------ ------ -----  --- ---- ---
2019 06 15 19  14 04 03.684   -35 07 19.70  1.3871 2.2097 133.1 21.3 5.04  72
2019 06 15 20  14 04 03.443   -35 06 43.89  1.3873 2.2097 133.1 21.3 5.08  72
2019 06 15 21  14 04 03.206   -35 06 08.09  1.3876 2.2096 133.1 21.3 5.11  72
2019 06 15 22  14 04 02.972   -35 05 32.31  1.3878 2.2096 133.0 21.3 5.14  72
2019 06 15 23  14 04 02.743   -35 04 56.55  1.3881 2.2096 133.0 21.3 5.18  72
2019 06 16 00  14 04 02.518   -35 04 20.79  1.3883 2.2095 133.0 21.3 5.21  72
2019 06 16 01  14 04 02.297   -35 03 45.05  1.3886 2.2095 132.9 21.3 5.24  72
2019 06 16 02  14 04 02.081   -35 03 09.32  1.3889 2.2094 132.9 21.3 5.28  72
2019 06 16 03  14 04 01.868   -35 02 33.61  1.3891 2.2094 132.9 21.3 5.31  72
2019 06 16 04  14 04 01.659   -35 01 57.91  1.3894 2.2093 132.8 21.3 5.35  72
2019 06 16 05  14 04 01.455   -35 01 22.22  1.3896 2.2093 132.8 21.3 5.38  72
2019 06 16 06  14 04 01.254   -35 00 46.55  1.3899 2.2092 132.8 21.3 5.41  72
2019 06 16 07  14 04 01.058   -35 00 10.89  1.3901 2.2092 132.7 21.3 5.45  72
2019 06 16 08  14 04 00.866   -34 59 35.25  1.3904 2.2091 132.7 21.3 5.48  72
2019 06 16 09  14 04 00.678   -34 58 59.62  1.3907 2.2091 132.7 21.3 5.52  72
2019 06 16 10  14 04 00.494   -34 58 24.00  1.3909 2.2091 132.6 21.3 5.55  72
2019 06 16 11  14 04 00.314   -34 57 48.40  1.3912 2.2090 132.6 21.3 5.59  72
2019 06 16 12  14 04 00.138   -34 57 12.81  1.3914 2.2090 132.5 21.3 5.62  72
2019 06 16 13  14 03 59.966   -34 56 37.23  1.3917 2.2089 132.5 21.3 5.66  72
2019 06 16 14  14 03 59.798   -34 56 01.67  1.3919 2.2089 132.5 21.3 5.69  72
2019 06 16 15  14 03 59.634   -34 55 26.12  1.3922 2.2088 132.4 21.3 5.73  72
2019 06 16 16  14 03 59.475   -34 54 50.59  1.3925 2.2088 132.4 21.3 5.76  72
2019 06 16 17  14 03 59.319   -34 54 15.07  1.3927 2.2087 132.4 21.3 5.80  72
2019 06 16 18  14 03 59.168   -34 53 39.57  1.3930 2.2087 132.3 21.3 5.83  72
2019 06 16 19  14 03 59.020   -34 53 04.08  1.3932 2.2086 132.3 21.3 5.87  72
2019 06 16 20  14 03 58.877   -34 52 28.60  1.3935 2.2086 132.3 21.3 5.90  72
2019 06 16 21  14 03 58.738   -34 51 53.14  1.3938 2.2085 132.2 21.3 5.94  72
2019 06 16 22  14 03 58.602   -34 51 17.69  1.3940 2.2085 132.2 21.3 5.98  72
2019 06 16 23  14 03 58.471   -34 50 42.25  1.3943 2.2085 132.2 21.3 6.01  72
2019 06 17 00  14 03 58.344   -34 50 06.83  1.3945 2.2084 132.1 21.3 6.05  72
2019 06 17 01  14 03 58.221   -34 49 31.43  1.3948 2.2084 132.1 21.3 6.08  72
2019 06 17 02  14 03 58.102   -34 48 56.04  1.3951 2.2083 132.0 21.3 6.12  72
2019 06 17 03  14 03 57.987   -34 48 20.66  1.3953 2.2083 132.0 21.3 6.16  72
2019 06 17 04  14 03 57.876   -34 47 45.30  1.3956 2.2082 132.0 21.3 6.19  72
2019 06 17 05  14 03 57.769   -34 47 09.95  1.3959 2.2082 131.9 21.3 6.23  72
2019 06 17 06  14 03 57.667   -34 46 34.62  1.3961 2.2081 131.9 21.3 6.27  72
2019 06 17 07  14 03 57.568   -34 45 59.30  1.3964 2.2081 131.9 21.3 6.30  72
2019 06 17 08  14 03 57.473   -34 45 24.00  1.3967 2.2080 131.8 21.3 6.34  72
2019 06 17 09  14 03 57.382   -34 44 48.71  1.3969 2.2080 131.8 21.3 6.38  72
2019 06 17 10  14 03 57.296   -34 44 13.43  1.3972 2.2080 131.8 21.3 6.42  73
2019 06 17 11  14 03 57.213   -34 43 38.18  1.3974 2.2079 131.7 21.3 6.45  73
2019 06 17 12  14 03 57.135   -34 43 02.93  1.3977 2.2079 131.7 21.3 6.49  73
2019 06 17 13  14 03 57.060   -34 42 27.70  1.3980 2.2078 131.7 21.3 6.53  73
2019 06 17 14  14 03 56.990   -34 41 52.49  1.3982 2.2078 131.6 21.3 6.57  73
2019 06 17 15  14 03 56.923   -34 41 17.29  1.3985 2.2077 131.6 21.3 6.60  73
2019 06 17 16  14 03 56.861   -34 40 42.10  1.3988 2.2077 131.6 21.3 6.64  73
2019 06 17 17  14 03 56.802   -34 40 06.93  1.3990 2.2076 131.5 21.3 6.68  73
2019 06 17 18  14 03 56.748   -34 39 31.77  1.3993 2.2076 131.5 21.3 6.72  73